Location: *
(37.5724°S, 58.0067°E)
Time: 21:04:37
(UTC+00:00)

Cosmos 773 Rocket - Pass Details

Date: 26 September 2020
Orbit: 745 x 777 km, 74.1° (Epoch: 27 October)

Event Time Altitude Azimuth Distance (km) Brightness Sun altitude
Rises 23:43:05 0° 196° (SSW) 3,267 7.4 -25.1°
Reaches altitude 10° 23:45:31 10° 192° (SSW) 2,329 6.6 -24.7°
Maximum altitude 23:50:47 66° 110° (ESE) 837 4.3 -23.7°
Drops below altitude 10° 23:55:55 10° 27° (NNE) 2,278 6.5 -22.8°
Sets 23:58:16 0° 24° (NNE) 3,191 7.3 -22.3°
